[[[{"header":{"parameterUnit":"kt","parameterCategory":2,"dx":1,"dy":1,"la1":30.253999710083008,"la2":30.299108505249023,"lo1":-89.0895004272461,"lo2":-89.04439544677734,"nx":28,"ny":28,"refTime":"2022-10-19T21:00:00:Z","depth":0,"parameterNumber":1,"parameterNumberName":"U-component_of_WINDS"},"data":[-2.5238,-2.5344,-2.5387,-2.5528,-2.559,-2.5694,-2.5745,-2.5816,-2.5883,-2.6013,-2.6095,-2.615,-2.6235,-2.6344,-2.6436,-2.6459,-2.6493,-2.65,-2.6525,-2.6456,-2.6449,-2.6442,-2.6418,-2.6508,-2.6508,-2.659,-2.659,-2.6591,-2.5186,-2.5248,-2.5336,-2.5449,-2.5524,-2.5544,-2.5636,-2.5697,-2.579,-2.5874,-2.5957,-2.6075,-2.6174,-2.6258,-2.636,-2.6411,-2.6426,-2.6436,-2.6431,-2.6444,-2.6372,-2.6347,-2.6423,-2.6423,-2.6423,-2.6423,-2.6423,-2.6423,-2.5102,-2.5163,-2.5256,-2.5351,-2.542,-2.5496,-2.5563,-2.5628,-2.5714,-2.5825,-2.586,-2.5965,-2.6058,-2.6202,-2.6261,-2.6345,-2.6341,-2.6365,-2.6371,-2.6375,-2.6374,-2.6248,-2.6365,-2.6365,-2.6365,-2.6365,-2.6365,0,-2.5052,-2.5084,-2.5169,-2.5269,-2.534,-2.5421,-2.5503,-2.5546,-2.5626,-2.5694,-2.5796,-2.5862,-2.5992,-2.6092,-2.6198,-2.6255,-2.628,-2.6288,-2.6305,-2.6287,-2.6258,-2.6273,-2.6152,-2.6283,-2.6283,-2.6282,-2.6282,-2.6282,-2.4968,-2.5035,-2.5153,-2.5208,-2.5262,-2.535,-2.5411,-2.5477,-2.5539,-2.5649,-2.5701,-2.5803,-2.5887,-2.6044,-2.6118,-2.6216,-2.6228,-2.6273,-2.6242,-2.6225,-2.6226,-2.622,-2.6227,-2.6276,-2.6277,-2.6278,-2.6278,0,-2.4916,-2.4985,-2.5103,-2.5213,-2.5243,-2.531,-2.5404,-2.5469,-2.5525,-2.5622,-2.5648,-2.5735,-2.5834,-2.5901,-2.6028,-2.606,-2.6173,-2.6184,-2.6142,-2.6146,-2.6192,-2.6186,-2.6333,-2.6356,-2.6266,-2.6267,-2.6268,0,-2.487,-2.4956,-2.5053,-2.5118,-2.5216,-2.5279,-2.5375,-2.5432,-2.5511,-2.5588,-2.5628,-2.5699,-2.5774,-2.5856,-2.5904,-2.6008,-2.6033,-2.6063,-2.6073,-2.6057,-2.6053,-2.6088,-2.6082,-2.6098,-2.6097,-2.6097,-2.6096,0,-2.4779,-2.4932,-2.5038,-2.5084,-2.5209,-2.5257,-2.5312,-2.54,-2.5459,-2.5547,-2.5585,-2.5683,-2.5736,-2.5811,-2.587,-2.5847,-2.6001,-2.598,-2.6031,-2.6029,-2.6058,-2.6054,-2.6172,-2.6095,-2.6095,-2.6095,-2.6094,0,-2.475,-2.4837,-2.4981,-2.5085,-2.5122,-2.5193,-2.5292,-2.5368,-2.5458,-2.5492,-2.5562,-2.5595,-2.5692,-2.5667,-2.5803,-2.5755,-2.5805,-2.5843,-2.5848,-2.5857,-2.5826,-2.588,-2.5987,-2.5999,-2.5871,-2.587,-2.5868,0,-2.4627,-2.479,-2.4844,-2.498,-2.5064,-2.5101,-2.5181,-2.5259,-2.5311,-2.5391,-2.5448,-2.5538,-2.5534,-2.557,-2.5629,-2.5691,-2.5754,-2.5686,-2.5798,-2.5801,-2.5769,-2.587,-2.5867,-2.5957,-2.5845,-2.5848,-2.5849,0,-2.4538,-2.4688,-2.4708,-2.4762,-2.4875,-2.4945,-2.5037,-2.514,-2.5189,-2.5273,-2.5351,-2.548,-2.5481,-2.5541,-2.5578,-2.5635,-2.5714,-2.5629,-2.5632,-2.564,-2.584,-2.5837,-2.5852,-2.5726,-2.5729,-2.5731,-2.5831,0,-2.4476,-2.4566,-2.4624,-2.4741,-2.4806,-2.4895,-2.4964,-2.5023,-2.5052,-2.5103,-2.522,-2.5301,-2.5404,-2.5439,-2.5467,-2.5577,-2.5568,-2.5568,-2.5545,-2.5612,-2.5646,-2.566,-2.5489,-2.5488,-2.5488,-2.5488,0,0,-2.4339,-2.4468,-2.4524,-2.4614,-2.4672,-2.4708,-2.4796,-2.4857,-2.4978,-2.5017,-2.5006,-2.5197,-2.5263,-2.5396,-2.5422,-2.5465,-2.549,-2.5463,-2.558,-2.559,-2.56,-2.5635,-2.5649,-2.5488,-2.5488,-2.5488,-2.5488,0,-2.4329,-2.4395,-2.4482,-2.4547,-2.4646,-2.4696,-2.4717,-2.482,-2.4857,-2.497,-2.4997,-2.5075,-2.5226,-2.5291,-2.5344,-2.5451,-2.5465,-2.5478,-2.5511,-2.5576,-2.5586,-2.5595,-2.5632,-2.5645,-2.5487,-2.5487,-2.5487,0,-2.4252,-2.4328,-2.4377,-2.451,-2.4575,-2.466,-2.4654,-2.4744,-2.4808,-2.4841,-2.4953,-2.5007,-2.51,-2.5217,-2.5272,-2.5263,-2.5438,-2.5395,-2.5398,-2.5405,-2.5471,-2.5483,-2.5494,-2.535,-2.5349,-2.5348,0,0,-2.4234,-2.4318,-2.4418,-2.4513,-2.4552,-2.4627,-2.4679,-2.4712,-2.4795,-2.4827,-2.4896,-2.4976,-2.5064,-2.5121,-2.5207,-2.5326,-2.535,-2.5375,-2.5382,-2.5387,-2.5396,-2.5463,-2.5475,-2.5345,-2.5345,-2.5345,0,0,-2.4225,-2.4345,-2.4358,-2.4477,-2.4555,-2.4659,-2.4715,-2.4733,-2.4818,-2.4815,-2.4874,-2.4898,-2.5008,-2.506,-2.5013,-2.52,-2.5176,-2.5189,-2.5161,-2.517,-2.5177,-2.5161,-2.5016,0,0,0,0,0,-2.4248,-2.433,-2.4341,-2.4371,-2.4538,-2.4654,-2.4675,-2.4726,-2.4708,-2.4751,-2.4812,-2.4824,-2.5047,-2.5007,-2.5036,-2.5086,-2.5308,-2.5315,-2.5321,-2.5314,-2.5323,-2.533,0,0,0,0,0,0,-2.4261,-2.4297,-2.4339,-2.4446,-2.4484,-2.4651,-2.4632,-2.4648,-2.4705,-2.4706,-2.4812,-2.4827,-2.4872,-2.4996,-2.5021,-2.5067,-2.5008,-2.5311,-2.5316,-2.5321,-2.5317,-2.5324,-2.533,0,0,0,0,0,-2.427,-2.43,-2.4555,-2.4445,-2.4478,-2.4565,-2.463,-2.4643,-2.4687,-2.478,-2.4796,-2.472,-2.4872,-2.4897,-2.5011,-2.5055,-2.4991,-2.5,-2.5314,-2.5319,-2.5323,-2.5321,0,0,0,0,0,0,-2.4278,-2.4313,-2.4563,-2.4575,-2.4417,-2.4557,-2.458,-2.4638,-2.4759,-2.4776,-2.4691,-2.469,-2.4873,-2.4892,-2.4911,-2.5047,-2.4977,-2.4986,-2.4992,-2.5318,-2.5321,-2.5324,0,0,0,0,0,0,-2.4298,-2.4323,-2.4569,-2.4531,-2.4539,-2.4549,-2.457,-2.4674,-2.476,-2.4663,-2.4666,-2.4689,-2.4845,-2.4889,-2.4904,-2.5065,-2.4966,-2.4975,-2.4981,-2.4985,-2.532,-2.5323,0,0,0,0,0,0,-2.4309,-2.4331,-2.4528,-2.4535,-2.4542,-2.468,-2.4642,-2.481,-2.4728,-2.4657,-2.4722,-2.4719,-2.4842,-2.4858,-2.4899,-2.5053,-2.5062,-2.4966,-2.4972,-2.4977,-2.4979,0,0,0,0,0,0,0,-2.4319,-2.416,-2.4492,-2.4537,-2.4543,-2.4686,-2.4689,-2.4692,-2.4727,-2.4725,-2.4723,-2.472,-2.4915,-2.4924,-2.4934,-2.5044,0,0,-2.4965,-2.497,0,0,0,0,0,0,0,0,-2.4152,-2.4158,-2.4492,-2.4494,-2.4497,-2.4686,-2.4689,-2.4691,-2.4727,-2.4725,-2.4723,-2.4721,-2.4917,-2.4925,-2.4933,0,0,0,0,0,0,0,0,0,0,0,0,0,0,0,-2.4492,-2.4494,0,-2.4687,-2.4689,-2.4691,-2.4727,-2.4725,-2.4723,-2.4722,-2.492,-2.4926,-2.4933,0,0,0,0,0,0,0,0,0,0,0,0,0,0,0,0,0,0,0,0,0,0,0,0,0,0,0,0,0,0,0,0,0,0,0,0,0,0,0,0,0,0,0,0,0,0,0,0,0,0,0,0,0,0,0,0,0,0,0,0,0,0,0,0,0,0,0,0,0]}],[{"header":{"parameterUnit":"kt","parameterCategory":2,"dx":1,"dy":1,"la1":30.253999710083008,"la2":30.299108505249023,"lo1":-89.0895004272461,"lo2":-89.04439544677734,"nx":28,"ny":28,"refTime":"2022-10-19T21:00:00:Z","depth":0,"parameterNumber":2,"parameterNumberName":"V-component_of_WINDS"},"data":[4.9727,4.9653,4.966,4.9577,4.9569,4.9512,4.9493,4.9469,4.9451,4.938,4.934,4.9337,4.9318,4.9268,4.9222,4.922,4.9198,4.9168,4.917,4.9307,4.9326,4.9344,4.9363,4.9164,4.9164,4.9027,4.9025,4.9024,4.9828,4.982,4.9779,4.9743,4.9707,4.9742,4.9715,4.9681,4.9627,4.9604,4.9565,4.9502,4.9452,4.9443,4.9394,4.9354,4.9365,4.934,4.9341,4.9336,4.9484,4.9504,4.9332,4.9332,4.9333,4.9333,4.9333,4.9333,5.0011,4.9966,4.995,4.9905,4.9889,4.9864,4.982,4.9819,4.9776,4.9729,4.9744,4.9682,4.9657,4.9599,4.958,4.953,4.9557,4.953,4.9522,4.9514,4.9504,4.9698,4.9522,4.9522,4.9523,4.9523,4.9523,0,5.0147,5.0157,5.0118,5.0081,5.0048,5.0019,4.9992,4.9966,4.9984,4.9947,4.9893,4.9862,4.98,4.9747,4.9702,4.9687,4.9713,4.9717,4.9697,4.9688,4.9686,4.9682,4.992,4.9721,4.9722,4.9723,4.9724,4.9725,5.033,5.0278,5.0263,5.0235,5.0223,5.0175,5.0148,5.0169,5.0138,5.0106,5.0063,5.0012,4.9972,4.988,4.9873,4.9825,4.9836,4.9759,4.9828,4.9823,4.983,4.9832,4.9825,4.9743,4.9741,4.9739,4.9738,0,5.0431,5.0444,5.0364,5.0355,5.0351,5.0293,5.0283,5.0237,5.024,5.0176,5.0162,5.0163,5.0108,5.0114,5.0051,5.0055,4.9952,4.9967,4.9961,4.9963,4.9892,4.9897,4.9668,4.9637,4.9848,4.9846,4.9844,0,5.059,5.052,5.0542,5.0495,5.0417,5.044,5.0361,5.0355,5.0336,5.0286,5.0321,5.0272,5.0288,5.0239,5.0245,5.0163,5.0152,5.0148,5.0149,5.0143,5.0143,5.0121,5.0129,5.016,5.0161,5.0162,5.0163,0,5.0745,5.0675,5.06,5.0585,5.0566,5.0529,5.0519,5.0498,5.0469,5.0434,5.0415,5.037,5.0344,5.0308,5.0316,5.0362,5.0217,5.0282,5.0212,5.0212,5.0176,5.0177,4.9977,5.0164,5.0164,5.0165,5.0165,0,5.0874,5.0843,5.0732,5.0717,5.0697,5.0646,5.0606,5.0565,5.0539,5.0541,5.0512,5.0534,5.0466,5.053,5.0434,5.0492,5.0464,5.0455,5.0451,5.0441,5.0511,5.0393,5.0205,5.0183,5.0437,5.0439,5.0441,0,5.1046,5.0939,5.0959,5.0852,5.0803,5.0846,5.079,5.0767,5.0765,5.072,5.0717,5.0664,5.0714,5.0697,5.065,5.0642,5.0566,5.0653,5.0579,5.0576,5.0582,5.0411,5.038,5.0247,5.047,5.0467,5.0465,0,5.1181,5.1162,5.1142,5.1125,5.1102,5.1061,5.0996,5.0951,5.092,5.0891,5.0835,5.0762,5.0796,5.0768,5.078,5.073,5.0618,5.0772,5.0771,5.0741,5.0487,5.0457,5.0435,5.0636,5.0633,5.063,5.0488,0,5.1368,5.1316,5.1263,5.1227,5.1197,5.1131,5.1141,5.1108,5.1125,5.1124,5.1042,5.1022,5.0971,5.0949,5.0963,5.0848,5.0867,5.0903,5.0961,5.085,5.0803,5.0785,5.1031,5.1033,5.1035,5.1036,0,0,5.1527,5.1454,5.1477,5.1418,5.1393,5.1438,5.1366,5.1347,5.1306,5.1286,5.1321,5.1214,5.1195,5.1093,5.106,5.104,5.1018,5.1056,5.0904,5.0889,5.0876,5.0826,5.0806,5.1038,5.1039,5.1039,5.104,0,5.1597,5.1586,5.1517,5.15,5.1475,5.1479,5.1462,5.1443,5.1439,5.1361,5.1394,5.1345,5.1259,5.1234,5.121,5.1071,5.1095,5.1055,5.0977,5.0919,5.0903,5.0888,5.0835,5.0816,5.1044,5.1043,5.1043,0,5.1729,5.1719,5.1687,5.1637,5.162,5.1568,5.1635,5.1577,5.1537,5.1584,5.1504,5.1493,5.146,5.1365,5.1322,5.135,5.1165,5.1226,5.1216,5.121,5.1154,5.1134,5.1116,5.135,5.1351,5.1352,0,0,5.1787,5.1741,5.1734,5.1653,5.164,5.1645,5.1618,5.1632,5.1605,5.1594,5.158,5.155,5.15,5.1466,5.1419,5.1313,5.1305,5.1263,5.1249,5.1237,5.1224,5.1165,5.1145,5.1356,5.1356,5.1356,0,0,5.1814,5.1804,5.1827,5.1736,5.1712,5.1696,5.1644,5.1671,5.163,5.1638,5.1654,5.1647,5.1558,5.1544,5.1597,5.1439,5.1498,5.1485,5.145,5.1432,5.1418,5.1421,5.1658,0,0,0,0,0,5.1891,5.1807,5.1828,5.1814,5.1748,5.1686,5.1677,5.1691,5.1733,5.1692,5.1685,5.1715,5.1576,5.1624,5.1607,5.1546,5.1407,5.1398,5.1389,5.1319,5.13,5.1284,0,0,0,0,0,0,5.1886,5.1869,5.183,5.1811,5.1797,5.1689,5.1763,5.1764,5.1738,5.1745,5.1715,5.1714,5.1722,5.1633,5.1618,5.156,5.1663,5.1403,5.1396,5.1389,5.1313,5.1297,5.1284,0,0,0,0,0,5.1881,5.1868,5.176,5.1812,5.18,5.1799,5.1766,5.1768,5.1747,5.1736,5.1735,5.1761,5.172,5.1708,5.1624,5.1566,5.1673,5.1668,5.1398,5.1392,5.1387,5.1305,0,0,0,0,0,0,5.1878,5.1868,5.1758,5.1755,5.1846,5.1805,5.18,5.1771,5.174,5.1739,5.1782,5.1788,5.1717,5.1709,5.1699,5.1568,5.1682,5.1676,5.1673,5.1394,5.1389,5.1385,0,0,0,0,0,0,5.1875,5.1864,5.1756,5.1798,5.1799,5.1811,5.1806,5.1735,5.1738,5.1788,5.1792,5.1785,5.1729,5.1708,5.1701,5.1591,5.1688,5.1683,5.1679,5.1677,5.139,5.1386,0,0,0,0,0,0,5.1871,5.1862,5.1799,5.18,5.1801,5.1763,5.1748,5.1679,5.1779,5.1788,5.1788,5.1792,5.1728,5.1722,5.1703,5.1595,5.1592,5.1688,5.1685,5.1682,5.168,0,0,0,0,0,0,0,5.1867,5.1926,5.1779,5.1801,5.1803,5.1722,5.1721,5.172,5.178,5.1784,5.1787,5.179,5.172,5.1714,5.1708,5.1599,0,0,5.1689,5.1686,0,0,0,0,0,0,0,0,5.193,5.1927,5.1779,5.1779,5.1778,5.1722,5.1721,5.1721,5.1781,5.1784,5.1786,5.1789,5.1718,5.1713,5.1708,0,0,0,0,0,0,0,0,0,0,0,0,0,0,0,5.1779,5.1779,0,5.1722,5.1721,5.1721,5.1781,5.1783,5.1786,5.1788,5.1717,5.1713,5.1709,0,0,0,0,0,0,0,0,0,0,0,0,0,0,0,0,0,0,0,0,0,0,0,0,0,0,0,0,0,0,0,0,0,0,0,0,0,0,0,0,0,0,0,0,0,0,0,0,0,0,0,0,0,0,0,0,0,0,0,0,0,0,0,0,0,0,0,0,0]}]]]